Regional Weather Roundup
Issued by NWS

Home | Current Version | Previous Version | Graphics & Text | Print | Product List | Glossary On
Versions: 1 2 3 4 5 6 7 8 9 10 11 12 13 14 15 16 17 18 19 20 21 22 23 24 25 26 27 28 29 30 31 32 33 34 35 36 37 38 39 40 41 42 43 44 45 46 47 48 49 50
000
ASUS43 KBIS 290410
RWRND

NORTH DAKOTA REGIONAL WEATHER ROUNDUP
NATIONAL WEATHER SERVICE BISMARCK ND
1100 PM CDT WED SEP 28 2016

NOTE: "FAIR" INDICATES FEW OR NO CLOUDS BELOW 12,000 FEET WITH NO
SIGNIFICANT WEATHER AND/OR OBSTRUCTIONS TO VISIBILITY.


NDZ001>003-009>011-017-290500-
NORTHWEST NORTH DAKOTA

CITY           SKY/WX    TMP DP  RH WIND       PRES   REMARKS
WILLISTON      CLEAR     62  38  40 SE6       30.28R
MINOT          CLEAR     50  46  86 SE7       30.35S
MINOT AFB      CLEAR     46  44  92 SE7       30.34S
$$

NDZ018>021-031>035-040>046-290500-
SOUTHWEST NORTH DAKOTA

CITY           SKY/WX    TMP DP  RH WIND       PRES   REMARKS
BISMARCK       CLEAR     47  45  93 E7        30.38R
DICKINSON      CLEAR     54  33  45 SE14      30.31R
GARRISON         N/A     50  48  93 SE8       30.35R
HETTINGER ARPT CLEAR     53  35  50 E12       30.35R
$$

NDZ004>008-012>016-024-026-027-054-290500-
NORTHEAST NORTH DAKOTA

CITY           SKY/WX    TMP DP  RH WIND       PRES   REMARKS
GRAND FORKS    MOCLDY    48  45  89 CALM      30.41R
GRND FRKS AFB  CLEAR     43  41  93 CALM      30.41R FOG
DEVILS LAKE    CLEAR     51  47  86 E8        30.40R
$$

NDZ022-023-025-028>030-036>039-047>053-290500-
SOUTHEAST NORTH DAKOTA

CITY           SKY/WX    TMP DP  RH WIND       PRES   REMARKS
FARGO          CLEAR     50  45  83 E8        30.40R
JAMESTOWN      CLEAR     47  43  86 SE6       30.39R FOG
$$




USA.gov is the U.S. government's official web portal to all federal, state and local government web resources and services.